N5MDT Weather Reports


Display with metric or nautical units.
time (UTC)temp
F
wind
direction
speed
MPH
gust
MPH
rain 1hr
in
rain 24hr
in
rain mn
in
humidity
%
barometer
mb
20260504003829 82 173 3.0 5.0 0.00 0.00 0.00 42 1018.3
20260504002828 83 128 3.0 5.0 0.00 0.00 0.00 41 1018.4
20260504001828 84 95 3.0 5.0 0.00 0.00 0.00 41 1018.4
20260504000828 84 163 4.0 7.0 0.00 0.00 0.00 39 1018.5
20260503235828 85 136 1.0 8.0 0.00 0.00 0.00 39 1018.6
20260503234828 86 136 2.0 7.0 0.00 0.00 0.00 37 1018.5
20260503233828 86 149 2.0 8.0 0.00 0.00 0.00 39 1018.5
20260503232828 86 109 2.0 7.0 0.00 0.00 0.00 38 1018.5
20260503231828 86 194 2.0 6.0 0.00 0.00 0.00 38 1018.6
20260503230828 87 145 2.0 6.0 0.00 0.00 0.00 39 1018.7
20260503225828 87 130 3.0 5.0 0.00 0.00 0.00 37 1018.7
20260503224828 88 133 1.0 3.0 0.00 0.00 0.00 38 1018.8
20260503223828 87 113 3.0 4.0 0.00 0.00 0.00 39 1018.9
20260503222828 87 101 0.0 6.0 0.00 0.00 0.00 42 1019.0
20260503221827 86 203 1.0 7.0 0.00 0.00 0.00 43 1019.2
20260503220827 85 125 2.0 4.0 0.00 0.00 0.00 42 1019.4
20260503215828 86 97 3.0 6.0 0.00 0.00 0.00 40 1019.4
20260503214827 87 92 4.0 6.0 0.00 0.00 0.00 39 1019.4
20260503213827 87 97 3.0 5.0 0.00 0.00 0.00 40 1019.5
20260503212827 88 111 4.0 6.0 0.00 0.00 0.00 40 1019.8
20260503211827 87 150 3.0 5.0 0.00 0.00 0.00 40 1019.9
20260503210827 86 163 0.0 6.0 0.00 0.00 0.00 43 1020.0
20260503205827 85 140 1.0 4.0 0.00 0.00 0.00 43 1020.0
20260503204827 84 162 0.0 2.0 0.00 0.00 0.00 43 1020.2
20260503203827 85 162 0.0 1.0 0.00 0.00 0.00 43 1020.5
20260503202827 85 162 1.0 4.0 0.00 0.00 0.00 43 1020.7
20260503201827 85 204 0.0 2.0 0.00 0.00 0.00 43 1020.7
20260503200827 85 153 1.0 2.0 0.00 0.00 0.00 45 1021.0
20260503195827 84 210 0.0 4.0 0.00 0.00 0.00 45 1021.1
20260503194827 83 121 1.0 3.0 0.00 0.00 0.00 50 1021.3
20260503193826 82 259 1.0 4.0 0.00 0.00 0.00 50 1021.5
20260503192826 81 175 1.0 3.0 0.00 0.00 0.00 48 1021.7
20260503191826 80 248 0.0 3.0 0.00 0.00 0.00 48 1021.8
20260503190826 80 179 0.0 6.0 0.00 0.00 0.00 51 1022.0
20260503185826 79 193 0.0 5.0 0.00 0.00 0.00 51 1022.0
20260503184826 79 146 0.0 3.0 0.00 0.00 0.00 51 1022.1
20260503183826 78 109 0.0 4.0 0.00 0.00 0.00 51 1022.2
20260503182826 78 71 0.0 4.0 0.00 0.00 0.00 54 1022.4
20260503181826 78 128 0.0 6.0 0.00 0.00 0.00 52 1022.6
20260503180825 77 87 1.0 5.0 0.00 0.00 0.00 57 1022.7
20260503175825 76 76 0.0 8.0 0.00 0.00 0.00 57 1022.9
20260503174825 76 204 0.0 5.0 0.00 0.00 0.00 58 1023.2
20260503173826 75 166 1.0 3.0 0.00 0.00 0.00 59 1023.4
20260503172825 75 196 0.0 6.0 0.00 0.00 0.00 57 1023.5
20260503171825 74 198 0.0 3.0 0.00 0.00 0.00 59 1023.5
20260503170825 74 121 0.0 3.0 0.00 0.00 0.00 58 1023.6
20260503150824 65 155 1.0 5.0 0.00 0.00 0.00 75 1023.6
20260503130823 58 77 0.0 0.0 0.00 0.00 0.00 85 1022.9
20260503110822 57 300 0.0 0.0 0.00 0.00 0.00 84 1022.0
20260503080821 60 300 0.0 0.0 0.00 0.00 0.00 81 1021.7
20260503072821 61 300 0.0 0.0 0.00 0.00 0.00 81 1021.9
20260503071821 61 300 0.0 0.0 0.00 0.00 0.00 80 1022.0
20260503070820 61 300 0.0 0.0 0.00 0.00 0.00 80 1022.0
20260503054820 63 300 0.0 0.0 0.00 0.00 0.00 78 1022.2
20260503053850 63 300 0.0 0.0 0.00 0.00 0.00 77 1022.1
20260503052820 63 300 0.0 0.0 0.00 0.00 0.00 77 1021.9
20260503051820 64 300 0.0 0.0 0.00 0.00 0.00 77 1021.8
20260503050820 64 300 0.0 0.0 0.00 0.00 0.00 77 1022.0
20260503045820 64 300 0.0 0.0 0.00 0.00 0.00 76 1022.0
20260503044820 65 300 0.0 0.0 0.00 0.00 0.00 76 1021.9
20260503043850 65 300 0.0 0.0 0.00 0.00 0.00 75 1022.0
20260503042822 65 300 0.0 0.0 0.00 0.00 0.00 75 1021.8
20260503041822 65 300 0.0 0.0 0.00 0.00 0.00 74 1021.7
20260503040823 66 300 0.0 0.0 0.00 0.00 0.00 73 1021.8
20260503035822 66 300 0.0 0.0 0.00 0.00 0.00 73 1021.7
20260503034822 66 300 0.0 0.0 0.00 0.00 0.00 72 1021.7
20260503033822 67 300 0.0 0.0 0.00 0.00 0.00 72 1021.6
20260503032822 67 300 0.0 0.0 0.00 0.00 0.00 70 1021.4
20260503031822 68 300 0.0 0.0 0.00 0.00 0.00 70 1021.3
20260503030822 68 300 0.0 0.0 0.00 0.00 0.00 70 1021.1
20260503025821 69 300 0.0 0.0 0.00 0.00 0.00 69 1021.2
20260503024822 69 300 0.0 0.0 0.00 0.00 0.00 67 1021.2
20260503023851 70 300 0.0 0.0 0.00 0.00 0.00 66 1021.1
20260503022821 70 300 0.0 0.0 0.00 0.00 0.00 65 1020.8
20260503021821 71 300 0.0 0.0 0.00 0.00 0.00 64 1020.7
20260503020821 71 300 0.0 0.0 0.00 0.00 0.00 63 1020.7
20260503015821 72 300 0.0 0.0 0.00 0.00 0.00 62 1020.5
20260503014821 73 300 0.0 0.0 0.00 0.00 0.00 62 1020.4
20260503013821 73 300 0.0 0.0 0.00 0.00 0.00 60 1020.2
20260503012821 74 300 0.0 0.0 0.00 0.00 0.00 60 1020.3
20260503011821 75 300 0.0 0.0 0.00 0.00 0.00 58 1020.2
20260503010821 76 300 0.0 0.0 0.00 0.00 0.00 56 1020.1
20260503005820 77 300 0.0 0.0 0.00 0.00 0.00 53 1020.1
20260503004820 78 300 0.0 0.0 0.00 0.00 0.00 51 1020.0